Zurück zum Katalog

STARLINK-31634

AktivKommunikationVLEO
NORAD 59330·PAYLOAD·🇺🇸 United States

Gestartet Mar 25, 2024 von Cape Canaveral Space Force Station

Loading…

Nächste Überflüge (nächste 24 Stunden)

TLE

AktuellSource: CelesTrak SupGP

Epoche: Sep 15, 2026, 02:32 UTC

1 59330C 24057L   26258.10604167 -.00051985  00000+0 -18833-2 0  2588
2 59330  43.0026 197.5710 0001397 273.2638 145.1260 15.27596504    12

Verfolge STARLINK-31634 in Echtzeit mit AllMySat

Download on the App Store